Location: Carrizal
(9.8472°N, 67.3428°W)
Time: 19:32:45
(UTC+00:00)

Cosmos 1953 - Pass Details

Date: 13 April 2024
Orbit: 513 x 530 km, 82.5° (Epoch: 22 May)

Event Time Altitude Azimuth Distance (km) Brightness Sun altitude
Rises 23:18:17 0° 172° (S) 2,623 5.6 -10.2°
Reaches altitude 10° 23:20:29 10° 165° (SSE) 1,734 4.6 -10.7°
Maximum altitude 23:24:06 42° 93° (E) 737 2.5 -11.6°
Drops below altitude 10° 23:27:41 10° 21° (NNE) 1,728 4.8 -12.4°
Sets 23:29:53 0° 15° (NNE) 2,613 5.8 -12.9°
